Wind_Speed
16 16 16 16 15 15 15 14 14 13 13 12 11 10 10 9 8 7 7 6 6 6 6 6 6 6 7 7 7 7 7 7 7 7 7 7 7 7 7 7 7 6 5 5 5 4 4 4 5 6 6 6 5 5 4 4 2 1 1 2 2 3 4 4 5 5 4 4 5 6 6 8 9 10 8 6 7 8 9 12 11 10 10 8 9 10 10 11
16 16 16 16 16 15 15 15 14 13 13 12 11 10 10 9 8 8 7 6 6 6 6 7 7 7 8 8 8 9 9 9 9 8 8 8 8 7 7 7 6 5 5 5 5 5 5 5 6 6 6 6 5 4 3 2 1 1 1 1 1 2 3 4 4 5 5 5 6 7 8 8 10 10 10 8 7 7 10 13 11 10 9 8 9 10 11 11
15 16 16 16 16 15 15 15 14 13 13 12 11 11 10 9 9 8 8 7 7 7 7 8 8 8 9 9 10 10 9 9 9 8 8 8 7 7 6 5 5 5 5 5 5 5 6 6 6 5 4 4 3 2 1 1 1 2 1 1 2 2 3 4 5 5 5 6 7 8 9 9 11 12 12 10 7 8 11 12 11 9 8 7 8 10 11 12
16 17 17 17 16 16 15 14 14 13 13 12 12 11 11 10 10 9 8 8 8 8 8 9 9 10 10 11 11 11 10 10 10 10 9 8 8 7 6 5 5 5 5 4 4 5 5 4 3 3 2 2 2 2 2 2 2 2 2 1 2 2 4 5 6 7 7 8 8 10 10 11 13 13 13 12 9 9 11 11 11 10 8 8 9 10 11 13
17 18 18 17 17 16 15 15 14 13 13 13 13 13 12 12 11 10 10 9 9 9 10 10 11 11 12 12 12 11 11 10 10 9 8 8 7 6 6 5 5 4 4 3 3 3 3 3 3 2 2 3 4 4 4 3 3 3 3 3 4 4 5 8 8 9 9 9 10 11 12 11 12 12 13 13 12 11 11 10 11 11 10 10 10 11 12 13
18 19 19 19 18 17 16 16 15 14 14 14 14 14 14 13 12 12 11 10 10 11 11 12 12 13 13 13 12 12 11 10 9 8 7 6 6 6 6 6 5 4 4 3 3 3 3 4 4 4 5 5 6 6 6 5 4 5 5 5 6 6 7 9 10 10 9 10 12 12 12 10 11 12 12 13 13 13 12 10 11 12 12 12 12 13 14 15
19 20 20 20 19 18 17 16 16 16 16 15 15 15 15 14 14 13 12 12 12 12 13 13 14 14 14 14 13 13 11 11 12 11 9 7 7 7 7 6 6 6 5 5 5 4 5 6 6 6 7 7 8 8 7 7 7 7 7 7 8 7 8 10 10 10 11 12 12 12 10 10 12 13 11 11 13 14 12 11 12 13 12 12 13 14 15 17
19 20 21 21 20 20 19 18 17 17 17 16 16 16 16 16 15 15 14 14 14 14 15 15 15 16 16 15 14 14 11 12 14 12 10 9 9 8 8 8 8 7 7 7 7 7 7 7 7 8 8 8 9 9 9 9 10 9 9 8 8 8 9 11 11 11 12 12 12 12 10 10 13 13 11 11 12 13 12 12 13 14 13 12 13 14 16 17
21 21 21 22 22 21 20 19 18 18 18 17 17 17 17 17 17 16 16 16 16 16 16 17 17 17 17 16 16 14 12 13 14 13 11 11 10 10 10 9 9 9 9 8 8 8 8 8 9 9 9 10 11 11 12 12 12 11 10 10 9 10 11 11 11 11 12 12 13 12 9 12 14 13 12 11 11 12 12 13 14 15 15 14 14 15 17 18
23 23 23 23 23 23 22 21 20 19 19 18 18 18 18 18 18 18 18 18 18 18 19 19 18 18 18 17 17 15 12 13 14 13 12 12 11 11 11 10 10 10 10 10 10 10 10 10 11 11 12 13 13 13 13 14 14 13 14 13 12 12 11 11 11 12 14 14 14 13 10 13 13 12 12 11 11 12 14 15 15 16 17 16 16 17 18 20
24 25 25 25 25 25 23 23 22 21 20 20 19 19 20 20 20 20 20 20 20 20 20 20 20 20 19 19 18 15 13 14 14 14 13 12 12 12 12 12 12 12 12 12 12 12 12 13 13 14 14 14 14 14 15 15 16 16 16 14 13 13 12 13 13 14 15 15 14 13 12 13 13 13 13 12 13 14 16 17 17 18 19 19 19 19 20 20
26 26 26 26 26 26 25 24 23 22 21 21 21 21 21 21 22 22 22 22 22 22 22 21 21 21 21 20 18 15 15 15 15 14 14 13 13 13 13 13 13 14 14 14 14 14 15 15 16 16 16 17 17 16 16 17 17 17 17 16 15 15 15 14 14 14 14 14 14 13 13 14 13 13 14 14 15 16 18 19 20 20 21 20 21 22 23 21
27 28 28 27 28 27 27 26 25 24 23 22 23 23 23 23 23 23 23 23 23 23 23 23 23 23 23 21 18 16 16 16 16 15 15 14 15 14 14 15 15 15 15 16 16 17 17 17 17 18 19 19 19 18 18 18 18 18 18 18 17 16 15 13 13 13 12 12 12 12 14 15 13 12 13 14 16 18 19 20 22 22 22 23 24 24 25 22
29 29 29 29 29 28 28 27 26 25 24 24 24 24 24 24 24 24 24 25 24 25 24 24 24 24 24 22 18 17 17 16 17 16 16 16 16 16 16 16 17 17 18 18 19 19 19 19 19 20 20 20 20 20 19 19 19 19 18 18 17 16 14 12 12 12 11 11 12 13 16 18 17 16 16 16 16 19 20 21 23 24 24 25 25 25 25 22
31 31 31 30 30 29 29 28 27 26 25 26 25 25 25 25 26 26 26 26 25 26 26 26 25 25 25 23 20 19 18 18 18 17 17 17 17 17 18 18 19 19 20 20 20 21 21 21 21 21 21 21 21 20 20 19 19 18 18 17 16 16 15 14 14 13 12 12 14 14 15 17 18 16 15 17 18 20 21 23 24 25 25 25 25 26 25 20
33 32 32 32 31 30 30 29 28 28 27 27 27 27 27 27 27 27 27 27 27 27 26 26 25 25 25 23 21 20 19 18 18 19 19 19 19 20 20 20 21 21 21 22 22 22 22 22 21 21 21 21 22 21 19 19 20 19 18 17 16 16 16 15 14 14 13 13 14 15 16 17 17 16 15 17 19 21 22 23 24 25 25 25 26 26 22 18
34 34 33 33 32 31 31 31 30 29 29 29 28 28 28 28 28 28 28 27 27 27 27 27 25 25 26 23 21 19 18 18 18 19 19 19 19 20 20 21 21 22 22 22 23 23 22 22 22 22 21 23 23 20 18 19 20 18 16 15 15 16 17 17 17 15 14 14 15 17 19 19 19 20 20 20 21 22 23 24 25 25 26 26 24 21 18 18
34 34 34 33 33 32 32 31 31 30 30 30 29 29 29 28 28 29 28 28 28 27 27 27 25 26 26 23 21 20 19 20 20 20 20 20 20 20 21 21 21 22 22 23 23 23 22 22 22 22 23 25 24 21 20 19 18 16 14 15 16 18 19 20 19 17 16 18 18 19 21 20 20 22 23 24 24 24 25 26 26 26 25 22 19 17 17 18
35 34 34 34 33 32 32 32 31 31 30 30 29 29 29 29 29 30 29 28 28 27 26 25 23 24 24 21 20 20 20 20 20 20 19 20 20 21 22 23 23 23 23 24 24 23 24 23 23 24 26 25 22 20 19 17 15 16 17 18 19 20 22 22 21 20 20 22 22 22 23 22 21 22 23 25 26 26 26 25 25 23 20 16 15 16 17 18
35 35 35 34 34 33 33 32 32 31 31 30 30 30 30 30 30 30 29 29 28 27 27 26 25 26 25 23 22 22 22 22 22 21 20 20 20 21 22 23 23 24 24 25 24 24 24 25 26 27 26 23 20 19 17 16 18 20 21 21 21 23 24 23 22 23 23 24 25 23 23 22 21 22 23 25 26 26 26 24 23 19 16 14 15 16 17 17
35 35 35 35 34 34 34 33 32 32 31 31 31 30 30 29 30 30 29 29 28 28 29 29 29 29 28 27 26 26 26 26 25 24 24 24 23 23 23 24 24 24 25 24 24 25 25 28 28 25 23 21 19 18 18 19 21 22 23 22 23 24 25 23 23 24 24 24 23 21 22 21 20 21 23 24 25 25 25 23 20 16 15 15 17 17 17 17
35 35 35 36 35 35 34 34 33 32 32 32 31 31 30 29 30 30 30 31 31 30 30 31 31 30 28 28 28 28 29 28 27 26 26 26 25 25 26 26 26 25 25 24 25 25 27 30 28 23 22 21 20 20 21 23 24 24 24 24 25 26 25 23 22 22 20 19 19 19 21 21 21 23 24 24 23 22 21 18 16 16 17 17 18 17 17 17
35 36 36 36 36 35 35 34 34 34 33 32 31 30 29 29 30 30 30 34 34 32 32 33 33 32 30 31 30 29 31 29 28 28 27 27 27 27 28 28 28 27 27 27 27 28 29 28 23 20 21 20 19 20 22 24 25 25 25 26 27 26 23 22 20 20 19 19 20 21 24 26 24 24 24 23 21 19 16 15 16 18 19 18 17 17 17 19
37 37 37 38 36 36 36 35 36 35 33 32 31 29 29 29 29 30 30 34 38 37 34 33 34 34 32 32 32 32 32 30 29 29 29 28 29 29 31 30 29 30 30 29 29 31 30 28 24 23 22 20 20 21 22 23 24 24 25 26 27 25 23 23 22 22 22 23 23 22 23 25 25 23 21 20 19 17 16 16 18 18 18 17 17 18 19 20
38 38 39 38 38 37 36 38 38 34 32 32 30 29 29 29 29 29 29 32 40 41 36 36 36 35 34 33 33 33 32 33 32 31 30 30 31 31 32 32 31 32 31 30 31 32 31 29 29 28 26 25 26 26 26 26 26 25 26 27 27 24 23 23 22 21 22 22 22 19 13 14 16 15 14 14 13 13 13 15 15 15 16 17 19 20 21 21
39 40 40 39 39 38 39 41 37 32 33 32 30 29 29 29 28 28 27 29 40 45 40 37 35 33 34 34 34 33 33 36 34 32 33 33 33 33 34 34 34 33 31 29 29 31 31 30 29 28 27 27 28 28 27 27 26 25 26 26 23 21 20 19 18 17 15 14 13 12 9 8 9 9 8 9 10 12 14 15 16 17 18 20 21 21 21 20
41 41 41 40 40 40 42 40 35 34 34 30 29 29 28 28 26 26 22 19 30 40 37 35 33 31 31 30 30 31 32 33 31 32 34 34 35 36 36 37 36 33 32 29 28 30 30 28 26 25 25 25 26 27 26 26 25 25 26 24 20 18 16 14 15 15 15 15 13 14 16 13 12 13 14 15 16 16 18 18 19 20 20 21 21 20 19 19
43 41 42 41 41 41 42 40 37 36 33 29 29 28 27 26 24 22 14 6 14 23 23 23 26 28 28 27 27 29 32 32 28 29 32 33 36 38 38 38 37 34 32 31 31 32 29 24 22 22 22 23 24 23 22 23 24 24 23 21 18 15 13 13 13 14 16 16 16 19 19 12 9 13 14 16 19 18 18 19 18 18 19 19 19 18 17 16
43 42 42 41 41 42 42 41 39 35 32 31 29 27 27 25 23 18 8 6 16 20 18 18 21 23 23 23 24 26 30 32 30 30 29 30 33 36 37 37 35 34 33 34 34 31 28 26 24 23 23 23 22 20 19 20 20 21 21 20 18 15 14 14 13 14 14 12 15 21 20 12 8 11 13 14 17 15 14 15 14 14 15 16 17 15 14 14
44 43 42 42 43 44 43 42 39 35 34 32 29 29 27 24 23 15 7 13 19 16 16 18 21 22 21 21 22 23 27 29 31 33 31 30 30 32 34 33 31 31 32 33 33 32 31 30 28 27 26 24 22 20 19 18 18 19 18 16 14 13 12 12 12 13 10 8 13 19 22 17 7 6 11 14 12 9 11 11 10 11 14 15 14 12 12 15
43 43 42 44 45 43 43 42 38 36 34 33 31 29 26 25 23 14 11 25 24 18 21 21 20 21 21 22 22 22 26 28 30 33 34 33 31 30 30 30 30 28 28 32 32 31 32 32 30 30 28 25 23 21 19 18 18 18 17 16 12 7 7 8 9 9 6 4 6 10 19 21 13 7 7 10 11 11 11 10 10 12 14 14 12 12 15 18
44 44 44 45 45 44 45 41 37 35 34 34 32 30 30 24 22 25 27 26 17 16 24 25 23 24 21 22 23 23 25 28 30 33 34 34 33 33 31 30 30 25 24 30 31 30 31 31 30 28 28 27 24 22 20 19 19 18 18 17 11 3 1 4 4 4 6 7 6 8 12 17 21 19 12 12 12 14 13 10 11 13 13 13 14 16 19 20
44 44 44 46 46 46 45 41 36 35 36 36 32 33 32 20 23 44 46 30 15 11 14 17 22 26 24 24 26 25 27 29 30 31 32 33 33 34 33 31 31 27 22 22 24 26 24 23 27 29 28 27 26 25 23 21 20 21 22 21 14 5 2 3 3 2 5 8 10 11 9 11 17 19 18 18 15 16 17 13 12 13 13 15 17 19 21 21
46 45 45 46 46 45 44 41 39 38 38 37 35 35 33 27 37 51 47 43 36 23 14 13 16 22 26 28 27 27 29 29 29 30 30 32 33 35 35 34 33 32 28 20 17 19 16 13 19 24 24 23 24 25 24 21 18 17 21 22 19 13 7 4 4 3 3 3 6 11 8 7 8 7 13 22 21 19 18 14 13 15 15 17 19 20 21 21
47 48 47 47 48 47 46 43 41 40 39 40 39 38 39 42 50 48 41 47 47 37 29 21 16 21 27 30 28 28 28 27 28 30 31 33 35 35 35 35 34 34 32 25 18 17 17 14 14 16 17 17 19 21 24 24 18 14 19 23 22 22 17 8 5 6 5 2 4 11 11 10 10 7 8 16 18 18 16 15 15 15 16 17 18 19 19 21
49 50 51 53 53 50 48 46 43 41 41 43 42 45 51 56 54 46 42 44 45 46 42 31 23 25 28 30 30 28 27 27 28 29 31 33 35 36 36 34 34 34 33 30 25 20 17 15 15 16 16 16 17 18 23 26 22 18 23 26 25 24 21 13 7 7 6 5 7 13 15 18 17 16 15 17 17 18 17 16 16 15 16 16 16 17 18 20
52 53 53 56 57 53 49 48 45 41 42 47 49 52 59 62 57 52 47 42 42 45 45 38 33 31 29 30 31 30 28 29 30 30 31 31 31 35 37 34 34 34 32 31 29 24 17 12 14 17 17 18 20 20 22 26 26 23 24 26 23 20 20 16 6 2 2 3 7 11 17 20 17 15 18 20 19 18 17 16 15 15 14 14 15 16 18 19
52 55 56 57 55 53 51 49 47 45 45 50 55 57 60 61 60 58 54 48 43 40 42 43 39 35 34 33 33 32 31 32 34 33 32 31 28 30 33 33 35 36 32 29 29 28 23 16 13 16 17 18 21 23 23 25 28 28 26 23 20 15 13 16 10 3 3 3 5 6 12 18 21 20 19 18 17 16 15 14 13 13 12 12 14 16 17 18
48 51 58 60 54 50 53 53 51 49 51 55 58 59 62 61 60 59 56 54 48 41 41 44 41 37 38 38 37 34 34 36 37 35 34 33 32 32 31 30 31 33 33 32 31 30 28 20 14 17 21 21 23 28 29 28 29 31 29 24 22 17 13 16 17 9 4 3 3 3 5 10 18 20 16 14 13 13 12 11 10 10 11 12 14 15 17 18
50 50 57 61 54 49 53 56 52 52 56 60 61 63 62 59 59 59 56 55 50 45 45 45 42 41 39 38 37 35 35 37 38 38 37 36 35 36 34 31 29 29 31 33 34 32 30 26 19 19 23 24 26 29 31 31 31 32 32 29 27 25 19 16 18 17 10 4 1 2 5 5 5 7 8 9 11 10 8 8 9 11 12 13 14 16 17 17
51 52 56 58 54 49 50 53 51 55 59 60 61 64 62 55 54 56 55 54 51 47 44 41 40 41 41 39 37 35 34 35 38 39 40 41 41 38 35 33 32 30 31 34 38 36 34 32 27 24 26 30 31 30 30 30 31 31 32 31 30 31 27 15 11 18 19 13 7 3 7 8 5 9 8 9 10 9 9 10 12 13 13 14 16 16 17 17
50 53 56 56 52 49 49 51 52 56 60 62 63 63 61 57 53 51 51 53 52 47 43 39 37 38 39 39 39 37 35 37 39 40 42 44 44 41 37 32 31 32 32 33 36 38 36 34 30 27 28 29 29 29 27 28 30 29 30 31 30 32 35 25 12 14 18 20 18 8 9 15 10 9 9 10 10 10 10 11 14 14 14 15 17 17 17 17
51 53 54 55 51 48 48 51 54 56 59 62 64 62 61 61 57 52 50 50 51 50 47 42 38 38 39 40 39 38 38 38 40 43 44 45 45 44 40 34 31 31 33 33 34 37 37 33 29 24 22 24 26 27 26 25 27 29 32 35 34 33 36 33 27 21 17 21 20 8 7 16 15 13 15 15 16 16 15 16 16 15 16 17 17 17 16 16
50 55 56 56 54 50 49 51 55 57 57 59 62 62 62 62 60 56 53 51 50 49 49 47 43 40 39 39 39 39 39 38 39 41 42 43 44 43 41 37 32 30 33 34 34 35 36 34 29 18 9 12 16 17 21 26 30 33 35 35 34 35 34 34 35 27 20 25 25 13 12 19 17 17 17 14 18 24 23 23 22 21 20 18 17 16 17 19
45 53 55 56 54 48 47 50 53 54 54 56 60 63 64 64 64 61 55 51 48 46 46 47 47 44 41 40 39 39 39 38 37 37 39 41 41 40 40 39 35 33 32 32 32 32 34 38 36 25 14 11 12 14 24 35 38 37 36 35 34 35 36 36 35 29 22 24 26 24 25 28 27 24 19 19 27 29 28 28 27 25 21 19 19 20 21 22
42 47 51 51 47 42 42 44 47 50 53 55 59 61 61 62 65 64 57 50 49 47 45 44 45 44 43 43 43 43 43 42 39 37 39 40 39 40 41 40 39 37 34 33 32 31 33 38 42 40 35 31 27 25 27 31 32 33 35 35 35 36 38 37 35 35 29 20 24 37 38 34 37 35 28 29 33 32 31 31 27 24 22 23 24 25 24 23
43 44 48 48 42 38 41 44 45 47 51 55 57 58 58 58 58 58 56 52 51 51 48 45 45 46 45 45 43 42 43 44 43 44 44 43 40 39 40 39 37 37 37 35 33 32 34 38 42 43 42 39 34 27 24 23 24 27 29 30 32 33 37 40 39 41 35 21 25 43 39 33 42 43 35 35 36 34 33 30 26 26 27 30 31 30 28 25
41 41 43 45 42 40 43 47 48 48 49 52 54 54 55 55 53 51 50 48 47 48 46 44 46 48 47 45 42 41 41 40 42 46 47 45 41 36 35 35 34 36 37 36 34 33 32 35 38 37 36 35 32 28 28 26 24 25 27 29 33 33 35 40 42 44 41 33 36 42 35 34 43 41 35 35 33 30 29 28 29 32 34 36 36 34 32 30
37 37 38 42 44 42 41 42 45 48 49 49 50 50 52 53 52 53 51 46 42 43 44 44 45 46 45 44 42 41 42 41 43 46 45 43 39 33 30 30 31 34 36 37 37 35 33 33 34 33 33 33 32 31 31 29 28 30 32 34 36 34 32 35 38 40 41 40 41 40 36 41 45 39 35 33 29 29 30 32 36 38 38 38 36 35 34 33
37 36 37 40 43 43 41 39 40 44 49 50 48 49 51 52 52 52 50 47 43 42 44 45 45 45 43 43 43 44 46 45 45 45 42 38 35 31 30 29 30 31 34 36 37 37 36 35 34 33 32 31 32 32 29 29 31 32 35 38 39 36 34 36 38 38 38 40 42 41 40 46 47 40 36 34 32 34 35 37 39 39 38 37 37 37 36 34
39 38 38 39 40 41 42 41 40 42 48 52 51 51 52 51 50 48 45 45 45 43 43 43 43 43 41 41 43 45 47 45 42 40 37 34 31 29 29 30 32 33 35 37 38 38 37 34 30 27 25 26 29 26 25 28 29 31 41 46 43 41 41 43 43 42 42 44 44 42 43 46 44 39 36 35 36 37 37 37 37 37 38 39 40 39 36 34
40 40 40 40 41 41 41 42 43 42 45 48 49 50 51 49 48 44 41 40 41 42 42 41 41 42 42 41 41 41 40 39 37 36 34 33 31 30 31 32 34 34 34 35 36 37 35 32 28 22 18 20 24 21 23 22 17 27 46 49 43 44 46 46 46 46 46 45 42 42 44 43 39 36 36 36 35 34 34 34 35 37 39 39 38 37 35 34
Wind_Direction
208 206 204 200 196 194 193 191 189 188 188 188 187 186 187 190 193 200 207 214 223 232 240 247 254 259 262 266 269 270 270 269 269 267 264 264 263 261 265 269 269 270 271 271 268 265 264 271 278 282 286 287 286 285 285 286 289 303 263 250 253 260 267 267 267 271 272 262 262 274 281 283 283 284 287 286 285 296 296 285 284 285 285 296 301 300 303 304
208 205 201 196 193 192 193 194 194 195 195 196 195 195 197 201 205 212 219 227 237 246 255 261 267 270 272 274 275 275 276 276 273 269 266 265 265 264 267 268 266 266 266 270 272 271 274 280 282 284 289 289 290 287 286 296 318 13 15 301 309 297 286 280 281 288 288 277 276 281 284 284 282 282 284 278 269 271 275 279 282 280 285 293 293 294 296 296
208 203 199 196 195 197 199 200 202 203 202 202 202 204 207 211 216 223 230 238 248 258 267 273 276 278 279 278 277 277 276 277 276 274 269 265 265 266 262 257 259 264 271 276 278 281 283 287 286 286 289 285 288 283 287 330 349 357 359 343 330 304 293 288 286 285 280 276 276 278 278 278 283 288 288 281 267 254 257 265 268 269 279 286 285 286 287 287
210 206 203 201 202 204 206 208 208 209 209 209 210 213 217 222 227 232 240 248 258 268 274 279 281 281 281 281 280 280 278 278 279 276 271 268 265 260 253 255 265 271 276 282 282 286 291 292 291 291 286 275 278 275 285 312 320 320 318 305 290 288 290 282 275 272 270 271 270 271 274 277 284 289 287 282 275 255 252 256 260 261 262 268 273 274 274 276
214 211 210 208 209 210 211 213 214 214 215 216 218 222 226 230 234 240 246 255 263 270 276 279 281 281 281 281 281 282 283 283 281 276 272 268 261 253 254 265 271 271 274 278 280 285 289 291 293 286 274 272 277 279 285 294 299 296 293 280 270 272 276 273 269 267 267 268 269 272 276 281 283 281 278 278 274 261 254 249 250 257 262 266 272 273 271 269
219 217 215 215 214 215 215 217 217 218 220 222 225 227 232 235 239 244 250 258 266 272 276 279 280 281 280 281 282 282 280 279 277 274 271 264 255 256 262 266 264 262 265 261 260 271 274 277 279 276 275 276 278 281 285 286 282 280 278 273 271 269 262 263 266 268 268 269 272 276 281 285 279 274 271 272 270 264 257 240 236 248 260 270 277 280 280 276
224 221 220 219 219 219 219 220 220 222 224 225 229 232 235 240 244 249 255 261 268 273 276 279 280 281 280 280 280 278 274 269 268 268 267 263 256 258 260 259 257 256 254 254 255 259 263 266 268 269 271 273 278 281 283 282 279 277 274 271 274 274 265 263 267 269 270 270 273 277 283 282 271 268 268 267 267 266 260 237 230 240 253 268 279 284 285 283
229 226 223 222 222 222 222 223 224 225 227 229 232 235 238 243 248 254 259 264 269 273 276 277 279 279 280 280 278 275 271 261 261 263 261 257 255 256 255 256 256 254 253 256 259 261 262 263 264 267 271 275 280 282 282 283 281 279 275 273 274 275 274 275 276 274 271 270 273 278 282 273 264 266 271 267 266 268 260 237 231 238 248 262 276 286 289 286
231 228 226 224 224 224 225 226 227 228 230 233 235 238 241 245 250 256 260 265 268 271 274 275 276 277 277 278 276 273 267 258 257 260 256 251 252 252 252 254 254 255 258 260 262 265 267 268 270 274 278 280 282 283 284 284 283 284 281 278 278 277 277 278 279 275 273 273 274 279 276 261 260 267 272 271 269 265 253 239 238 245 252 262 275 288 294 293
231 229 227 226 226 226 227 227 229 231 233 236 239 242 244 247 251 255 260 264 267 269 272 274 275 275 275 275 272 271 267 259 255 256 253 251 251 252 253 255 257 261 262 264 266 268 270 273 277 279 282 282 283 283 283 283 284 285 284 283 282 279 277 275 276 275 275 277 278 279 269 257 260 265 268 272 269 258 246 242 247 257 263 270 279 291 297 297
233 231 228 227 227 227 228 229 230 233 235 238 241 244 246 249 252 255 259 263 266 269 271 274 274 275 275 273 271 271 266 258 255 253 253 253 253 254 256 258 261 262 263 265 266 268 271 274 276 279 280 280 281 281 281 281 282 283 283 283 281 279 279 278 276 274 273 275 278 277 268 261 262 262 264 266 264 256 248 249 254 261 267 273 281 291 297 298
235 234 231 229 229 230 230 231 232 235 237 240 243 245 248 250 253 256 260 263 266 269 271 273 274 274 273 272 272 270 262 257 256 254 255 256 256 256 257 258 260 261 262 263 264 268 271 273 275 275 275 277 278 279 279 280 281 281 282 282 281 280 283 282 279 275 272 272 273 274 273 268 264 263 264 262 259 257 254 256 260 265 269 275 282 291 298 299
235 235 233 232 232 232 232 233 234 236 239 242 244 246 249 252 255 258 261 265 267 270 272 273 273 273 272 271 270 265 259 256 255 256 256 256 256 256 256 257 258 260 262 264 266 268 269 271 272 272 273 274 274 274 275 277 278 279 281 283 284 285 284 282 281 278 274 268 264 268 275 272 266 267 270 265 257 256 258 262 266 269 273 278 284 292 299 299
236 236 235 234 234 235 235 235 236 238 240 243 246 248 251 254 256 260 263 265 268 270 272 273 273 272 271 269 266 261 258 255 254 254 255 255 256 256 256 258 259 261 264 266 268 269 270 271 271 271 271 270 271 272 272 275 277 278 280 283 286 288 287 285 284 282 272 262 262 269 276 274 271 270 270 266 258 255 257 262 267 271 276 281 287 293 298 296
236 236 236 235 236 236 236 237 238 240 242 244 247 249 252 255 258 261 263 266 268 270 271 272 272 272 270 269 265 261 258 256 256 255 255 255 256 257 258 259 261 263 265 267 268 269 270 270 269 269 269 269 269 269 271 274 275 277 280 283 287 287 287 287 283 277 267 262 266 270 274 275 273 269 264 261 258 257 258 262 268 273 278 283 288 293 294 292
238 237 237 236 236 236 237 238 239 240 243 245 247 250 253 256 258 261 264 266 268 269 270 270 270 270 269 268 266 262 260 258 257 256 255 256 257 258 259 260 262 263 265 266 267 267 267 266 266 265 267 268 268 268 271 273 272 275 279 282 286 286 285 285 281 275 269 266 269 270 270 272 272 270 266 262 260 260 262 265 269 273 278 283 287 289 288 291
238 238 237 237 237 237 238 239 240 241 243 246 248 251 254 256 259 262 264 266 267 269 269 268 268 268 267 268 266 264 262 260 257 256 256 256 257 258 260 261 262 263 263 264 263 263 263 262 261 262 265 265 264 266 264 267 276 282 284 283 282 282 282 283 281 278 275 271 271 271 269 269 271 272 271 267 265 264 265 267 270 273 278 282 283 282 284 291
238 238 238 237 237 237 239 239 241 242 244 247 250 252 255 258 260 263 264 266 266 267 266 266 267 266 266 266 265 264 262 259 258 258 258 258 259 259 260 260 260 261 260 261 261 261 260 260 259 260 260 259 260 262 261 272 289 290 285 282 279 277 277 279 279 277 276 275 274 272 271 271 270 271 272 270 270 269 269 270 273 277 281 281 277 277 285 293
236 237 237 237 237 237 238 240 241 243 246 248 251 254 257 260 262 264 265 265 264 264 265 265 263 262 264 264 263 262 260 260 260 259 259 259 259 259 259 259 258 259 258 259 259 259 259 258 257 257 259 262 268 275 277 283 285 277 275 276 274 274 274 277 276 273 274 275 275 273 273 272 270 270 270 270 271 271 272 275 278 282 283 277 274 280 287 292
235 235 236 237 236 237 238 240 242 244 247 249 252 255 258 261 264 264 264 264 264 263 262 262 260 259 261 262 261 261 261 262 261 261 261 260 259 259 257 257 256 256 256 257 257 258 257 255 255 261 267 274 280 282 278 273 269 270 273 273 270 270 272 276 274 273 275 276 277 277 275 272 270 268 267 267 269 271 273 276 281 282 278 273 276 281 283 286
235 235 236 236 236 237 239 241 243 246 248 251 253 256 259 262 264 264 265 263 262 261 261 261 261 260 260 261 261 261 261 261 261 261 261 261 260 259 258 257 257 257 257 257 256 257 254 252 259 270 275 276 273 268 264 266 270 273 272 271 269 268 272 276 275 275 277 277 278 277 275 273 272 271 269 268 268 270 272 274 276 274 270 273 276 277 277 280
235 236 236 237 237 238 240 242 245 247 250 252 255 257 260 261 262 264 266 265 262 260 261 261 261 261 261 261 260 260 260 259 260 260 260 260 259 258 259 258 258 258 258 255 254 253 251 255 267 275 272 268 264 261 264 268 270 269 268 267 267 269 274 276 276 278 278 278 278 276 276 277 277 274 272 272 271 271 272 270 265 264 266 269 271 271 274 280
234 236 237 238 239 240 242 243 245 248 250 253 256 257 258 259 261 263 266 269 267 262 261 262 262 262 261 260 260 258 258 258 258 258 257 257 257 257 257 257 258 257 255 254 253 251 252 262 272 271 264 262 260 261 264 265 265 264 264 263 266 271 274 274 277 278 277 278 278 278 280 279 275 272 270 269 269 269 268 263 258 261 265 266 267 270 277 284
234 235 237 239 240 241 243 244 246 247 250 253 255 255 257 258 260 264 267 272 271 265 262 262 262 261 260 259 259 257 257 257 255 254 254 254 254 255 256 257 257 255 255 256 256 255 257 265 267 263 262 260 259 260 262 264 265 264 263 263 267 272 274 274 276 277 277 278 277 280 284 280 272 268 265 261 260 260 258 256 256 258 260 262 266 273 281 286
234 235 238 240 241 243 244 245 245 247 249 251 253 254 256 258 261 265 270 275 275 269 264 263 262 261 259 256 255 255 256 255 252 252 253 252 252 253 255 255 254 255 256 256 256 257 258 262 262 261 262 262 262 262 263 265 265 264 265 266 269 273 273 271 270 272 275 275 275 274 276 278 266 257 255 250 247 246 245 247 251 253 256 261 268 275 279 283
234 235 238 240 242 244 245 245 246 247 248 249 251 253 254 257 261 265 271 277 276 272 268 265 261 258 256 252 252 252 252 253 251 250 250 250 250 251 251 252 252 253 255 254 254 256 257 259 260 261 262 263 263 263 263 262 260 261 266 268 270 271 268 267 265 263 264 269 275 265 246 253 251 228 224 237 241 241 243 247 250 254 258 263 269 273 277 281
234 235 237 239 241 243 245 247 247 246 247 248 250 251 254 257 260 265 273 282 277 272 269 264 257 256 255 252 250 245 244 251 251 247 247 247 248 248 248 249 251 251 251 249 247 253 258 258 259 261 260 260 260 262 263 261 258 260 266 270 270 269 266 264 260 256 258 263 267 261 253 256 256 242 240 248 253 253 252 251 252 254 259 264 269 272 276 281
234 235 237 239 240 242 245 246 246 245 247 247 247 250 252 254 258 261 265 276 272 270 268 258 253 254 252 248 247 241 242 250 250 247 246 244 244 245 246 248 251 252 252 249 247 254 261 259 258 258 254 255 259 263 264 261 258 258 264 267 266 266 262 259 260 259 264 263 255 251 248 251 262 252 247 249 252 255 254 251 252 255 258 262 265 269 273 281
234 235 237 238 239 241 243 244 244 244 245 245 245 247 247 249 250 246 236 241 256 260 258 250 247 248 245 242 241 240 243 246 245 246 246 242 242 243 245 247 248 249 250 250 250 254 257 256 255 253 252 256 259 261 259 256 256 256 257 258 258 262 261 261 262 260 263 256 248 250 244 241 262 245 233 245 252 250 244 242 244 246 249 252 254 260 270 280
235 235 236 238 239 240 241 243 244 244 243 243 243 243 242 242 236 217 199 240 247 250 249 244 240 240 239 237 235 235 239 241 241 242 242 239 239 240 241 242 243 245 247 249 249 250 252 253 252 251 253 256 254 253 252 250 249 247 247 247 251 260 260 260 257 255 264 256 250 254 244 239 254 237 228 240 240 217 207 215 227 236 241 243 245 253 268 276
234 235 236 238 239 241 243 244 244 245 244 243 241 238 236 234 221 197 218 241 243 246 244 238 235 238 241 241 240 237 234 235 237 237 237 238 237 237 236 234 234 236 239 242 245 247 247 247 248 250 251 251 249 248 247 248 244 237 237 236 236 246 251 252 248 239 244 251 247 243 233 227 224 226 210 199 196 188 190 208 228 238 239 236 238 253 265 271
232 232 234 237 238 240 241 243 244 245 245 242 238 234 228 219 209 215 229 238 246 249 240 236 237 239 240 239 237 235 232 233 234 235 236 237 237 238 239 238 235 229 232 240 243 246 248 247 248 248 248 246 244 241 237 239 236 230 228 223 214 199 245 244 235 223 234 246 240 220 217 221 230 240 219 181 187 194 197 215 225 226 231 232 240 254 262 266
233 232 232 234 237 238 240 241 239 239 240 237 233 228 219 205 220 230 229 227 234 241 232 231 233 234 233 231 228 227 228 230 231 233 236 236 237 239 240 241 240 236 238 242 240 240 246 250 244 240 241 241 238 235 232 231 230 228 224 215 202 164 98 247 243 270 258 247 233 215 216 231 240 247 231 209 202 201 210 226 220 215 228 238 246 254 258 262
234 233 232 234 236 237 238 238 234 234 235 232 226 219 207 210 235 237 230 229 232 235 237 228 220 221 223 225 226 224 224 228 231 232 234 234 235 236 236 237 237 236 237 238 236 232 232 242 238 233 235 237 237 236 235 236 235 233 228 220 214 207 202 225 215 214 247 242 209 196 202 223 216 225 223 213 210 211 221 231 223 225 235 241 248 253 257 263
235 234 233 234 234 234 234 233 232 229 228 227 221 210 205 219 234 235 231 232 231 231 236 235 224 217 217 219 223 223 224 228 232 233 234 235 236 238 239 237 235 233 231 227 227 225 224 235 235 228 231 232 234 233 231 231 230 226 219 214 219 224 228 240 237 232 252 307 222 202 213 230 217 206 196 195 204 214 225 233 233 238 243 244 253 257 261 266
234 233 233 234 233 233 233 233 231 225 222 223 214 207 217 228 233 233 234 234 232 233 233 231 226 218 214 216 219 220 223 228 233 233 234 237 239 241 241 240 239 238 235 230 225 220 221 233 234 230 229 224 223 225 224 224 222 215 212 214 221 227 230 239 258 258 257 281 253 221 227 240 239 243 234 213 215 224 228 233 236 240 245 250 257 259 262 265
235 233 233 234 233 232 232 233 230 220 218 220 213 214 227 235 235 236 238 237 236 237 233 230 227 221 218 219 220 222 224 228 232 233 234 236 240 242 241 240 240 239 239 236 231 228 226 234 234 229 228 223 219 219 218 221 222 216 216 221 225 227 230 232 246 296 225 261 258 223 227 235 229 236 241 227 223 229 227 225 229 238 247 253 256 256 259 261
236 236 237 236 233 233 232 233 229 219 214 215 216 223 232 235 236 237 238 238 238 237 234 232 231 230 229 228 229 229 228 229 230 231 233 236 240 246 244 241 241 239 237 233 230 231 232 234 233 225 224 223 220 218 214 214 219 221 225 225 218 215 218 214 217 247 213 244 282 231 224 233 227 229 241 237 228 227 223 222 232 244 251 254 252 250 253 259
237 238 240 236 233 235 233 233 231 221 213 212 214 224 232 233 236 237 236 237 237 235 235 234 234 234 234 234 235 233 230 232 233 232 234 236 241 248 248 244 244 240 235 230 228 230 229 229 231 225 222 220 218 216 214 213 215 218 223 223 218 219 216 209 214 222 204 211 281 265 227 239 240 239 241 239 226 215 215 228 248 256 252 249 247 251 260 266
239 240 241 238 236 239 236 232 227 215 212 215 214 221 229 230 232 233 232 233 233 233 236 237 235 233 234 234 235 233 231 234 237 236 237 240 243 248 249 245 243 238 231 226 226 227 226 225 228 222 216 215 217 220 223 224 222 219 219 217 216 219 219 224 230 229 225 215 212 277 271 245 212 206 208 196 190 203 236 259 263 258 252 251 255 262 267 268
239 239 241 240 238 242 236 226 217 207 211 219 218 220 225 226 228 231 230 230 231 232 234 234 234 234 234 234 234 234 231 232 236 237 238 241 243 246 248 245 241 235 225 219 220 222 221 221 222 218 214 215 221 228 230 231 231 232 233 231 229 227 221 220 236 230 226 231 222 226 279 263 171 151 177 183 185 218 259 271 275 276 268 260 261 266 270 271
237 236 239 240 239 240 233 222 216 211 211 217 219 221 224 225 226 228 228 228 229 229 230 231 231 232 234 236 237 237 234 234 235 235 237 241 243 244 245 243 239 234 228 226 226 224 220 220 220 219 223 225 227 229 226 225 228 232 237 240 240 235 226 217 226 230 223 232 236 237 274 265 232 189 206 227 241 254 261 267 280 283 264 254 259 265 268 271
235 235 239 241 240 239 230 218 216 216 215 217 220 222 224 226 228 228 228 228 228 228 229 229 229 229 231 234 235 235 235 236 238 238 239 240 240 240 240 238 235 230 227 229 228 220 214 215 215 215 224 227 226 229 227 225 227 227 231 234 231 233 232 229 236 241 231 230 227 214 262 253 238 237 243 249 263 276 284 284 284 277 263 258 260 260 258 259
236 234 236 239 240 237 229 218 215 217 218 218 221 223 224 228 231 231 231 230 229 229 230 231 231 229 228 229 230 232 233 233 236 238 238 239 239 239 238 235 231 226 223 225 225 218 211 211 209 200 206 224 224 229 228 224 226 229 231 232 231 235 236 234 236 238 243 241 225 207 244 249 246 252 248 249 268 280 290 292 288 284 274 263 254 251 254 259
234 228 228 232 234 231 227 225 224 224 222 220 221 223 224 226 230 231 232 232 230 229 230 232 233 231 229 228 229 232 233 234 237 238 237 237 238 238 237 234 229 225 224 225 226 223 218 217 213 204 197 207 210 218 225 225 225 227 231 233 235 236 234 233 233 229 235 242 229 223 241 250 253 255 251 260 274 282 290 291 288 283 272 261 260 264 267 269
234 225 221 222 224 223 223 227 228 228 227 223 221 223 224 226 229 231 233 234 233 231 230 232 234 234 233 234 236 238 238 238 238 239 239 239 239 238 237 235 231 228 224 221 221 221 221 223 224 222 222 224 224 226 232 232 228 229 235 239 239 241 239 236 232 229 229 230 234 240 244 247 252 255 259 268 277 284 288 287 284 276 269 272 277 278 277 275
232 226 223 220 215 214 219 225 227 227 229 225 222 223 226 227 230 233 235 236 237 237 237 237 239 239 238 237 237 238 239 239 237 238 240 241 242 241 238 236 233 228 223 220 216 215 217 222 226 229 230 233 235 238 241 243 240 239 244 246 245 245 242 235 232 236 233 224 240 249 247 247 253 259 266 274 280 284 285 281 276 273 275 280 282 281 281 280
225 224 226 224 218 215 220 227 230 229 229 227 225 226 228 228 231 233 235 236 237 237 236 235 237 239 240 240 238 234 233 232 233 236 238 239 239 236 234 233 229 224 221 219 214 211 214 221 224 226 230 234 237 241 243 243 244 245 247 249 250 248 243 240 242 244 238 232 244 252 252 256 262 267 274 278 279 279 277 274 273 276 280 282 282 283 284 284
229 230 229 225 223 224 228 233 234 231 229 229 229 230 231 232 233 234 236 236 235 233 233 232 233 236 236 237 237 235 232 229 231 235 236 234 232 229 226 227 225 222 221 219 218 217 220 227 230 230 233 237 237 239 242 244 246 248 250 252 252 248 244 245 248 248 243 241 249 256 263 269 272 275 276 276 274 271 270 272 276 280 281 281 282 283 284 286
231 234 234 230 227 228 230 232 232 230 229 228 229 232 234 235 235 235 236 236 233 232 232 232 235 236 236 236 236 237 239 238 238 239 236 231 230 231 232 234 234 231 226 223 223 223 224 228 232 233 234 238 240 241 244 246 248 250 254 255 252 246 242 243 245 247 247 251 258 263 267 271 273 273 272 271 270 270 273 277 279 280 280 280 281 283 285 285
232 233 235 235 234 233 233 234 232 229 225 225 227 230 232 233 234 234 234 233 233 234 234 235 237 237 236 237 236 237 240 240 240 241 238 233 233 236 237 238 239 237 232 226 223 222 222 224 227 228 229 236 242 242 243 246 250 255 257 255 251 250 250 249 250 251 254 258 262 262 261 266 271 273 271 271 271 273 276 277 276 275 276 277 279 280 280 278
232 234 234 235 237 239 238 238 235 229 225 224 227 230 232 233 235 234 232 231 233 235 236 237 238 235 231 231 231 233 235 236 236 236 234 232 232 235 235 235 235 234 229 223 220 221 222 223 224 223 221 234 244 246 248 251 256 256 254 253 254 255 256 256 256 258 260 260 259 257 259 267 273 274 275 275 276 276 275 273 271 271 271 272 273 273 272 270
Height
3170 3170 3171 3172 3173 3173 3174 3175 3176 3176 3177 3177 3178 3178 3179 3180 3180 3181 3182 3182 3183 3183 3183 3183 3183 3184 3184 3184 3184 3184 3185 3185 3185 3185 3185 3186 3186 3186 3186 3186 3186 3186 3186 3186 3186 3186 3186 3187 3187 3187 3187 3187 3187 3187 3187 3188 3188 3188 3188 3189 3189 3189 3189 3190 3190 3190 3191 3191 3192 3192 3192 3192 3192 3192 3192 3193 3192 3192 3191 3189 3190 3190 3189 3190 3189 3189 3189 3189
3169 3169 3170 3171 3172 3173 3173 3174 3175 3176 3176 3177 3177 3178 3178 3179 3180 3180 3181 3181 3182 3182 3182 3182 3183 3183 3183 3183 3184 3184 3184 3184 3184 3184 3184 3184 3184 3185 3185 3185 3185 3185 3185 3185 3185 3186 3186 3186 3186 3186 3186 3186 3186 3187 3187 3187 3187 3188 3188 3188 3188 3189 3189 3189 3189 3190 3190 3191 3191 3191 3191 3191 3191 3191 3191 3192 3192 3191 3190 3188 3188 3188 3188 3189 3188 3188 3188 3188
3168 3168 3169 3170 3171 3172 3173 3173 3174 3175 3175 3176 3176 3177 3177 3178 3179 3179 3180 3180 3181 3181 3181 3181 3182 3182 3182 3183 3183 3183 3183 3183 3183 3183 3183 3183 3183 3184 3184 3184 3184 3184 3184 3185 3185 3185 3185 3185 3185 3185 3185 3185 3186 3186 3186 3187 3187 3187 3187 3188 3188 3188 3188 3188 3189 3189 3189 3189 3190 3190 3190 3190 3189 3189 3189 3190 3190 3190 3189 3188 3188 3188 3188 3188 3187 3187 3187 3187
3167 3168 3168 3169 3170 3171 3172 3172 3173 3174 3175 3175 3176 3176 3177 3177 3178 3178 3179 3179 3179 3180 3180 3180 3180 3181 3181 3182 3182 3182 3182 3182 3182 3182 3182 3182 3182 3182 3183 3183 3183 3183 3183 3184 3184 3184 3184 3184 3184 3184 3184 3185 3185 3185 3186 3186 3186 3186 3187 3187 3187 3187 3187 3187 3188 3188 3188 3188 3188 3188 3188 3188 3188 3188 3188 3187 3188 3188 3188 3188 3187 3187 3187 3187 3186 3186 3185 3185
3166 3167 3167 3168 3169 3170 3170 3171 3172 3173 3174 3174 3175 3175 3176 3176 3177 3177 3178 3178 3178 3179 3179 3179 3179 3180 3180 3180 3181 3181 3181 3181 3181 3181 3181 3181 3181 3181 3182 3182 3182 3182 3183 3183 3183 3183 3183 3183 3184 3184 3184 3184 3184 3185 3185 3185 3186 3186 3186 3186 3186 3187 3186 3186 3186 3186 3187 3187 3187 3187 3187 3187 3187 3186 3186 3186 3186 3186 3186 3186 3186 3185 3185 3185 3185 3184 3184 3184
3164 3165 3166 3167 3167 3168 3169 3170 3171 3172 3172 3173 3174 3174 3175 3175 3176 3176 3177 3177 3177 3177 3178 3178 3178 3179 3179 3179 3180 3180 3180 3180 3180 3180 3180 3180 3180 3181 3181 3181 3181 3181 3182 3182 3182 3182 3183 3183 3183 3183 3183 3183 3183 3184 3184 3184 3185 3185 3185 3185 3185 3185 3185 3185 3185 3185 3185 3185 3185 3185 3185 3185 3185 3184 3184 3184 3183 3183 3184 3185 3185 3184 3183 3183 3183 3183 3183 3182
3163 3163 3164 3165 3166 3167 3167 3168 3169 3170 3171 3172 3172 3173 3173 3174 3174 3175 3175 3176 3176 3176 3176 3177 3177 3177 3178 3178 3178 3178 3179 3179 3178 3178 3179 3179 3179 3179 3180 3180 3180 3181 3181 3181 3181 3182 3182 3182 3182 3182 3182 3182 3182 3183 3183 3183 3184 3184 3184 3184 3184 3184 3184 3183 3183 3184 3184 3184 3183 3183 3184 3184 3183 3183 3183 3182 3182 3181 3182 3183 3183 3182 3182 3182 3182 3182 3182 3181
3160 3161 3162 3163 3164 3165 3166 3167 3168 3168 3169 3170 3171 3171 3172 3172 3172 3173 3174 3174 3174 3175 3175 3175 3176 3176 3176 3176 3177 3177 3178 3177 3177 3177 3178 3178 3178 3178 3179 3179 3179 3179 3180 3180 3180 3181 3181 3181 3181 3181 3181 3181 3181 3181 3181 3182 3182 3182 3183 3183 3183 3183 3183 3182 3182 3182 3182 3182 3182 3182 3183 3182 3181 3181 3181 3181 3180 3180 3181 3181 3181 3181 3181 3181 3181 3180 3180 3180
3158 3159 3160 3161 3162 3163 3164 3165 3166 3166 3167 3168 3169 3169 3170 3170 3171 3171 3172 3172 3173 3173 3173 3174 3174 3174 3174 3175 3175 3175 3176 3176 3175 3176 3176 3177 3177 3177 3177 3178 3178 3178 3178 3179 3179 3179 3179 3179 3180 3180 3180 3180 3180 3180 3180 3180 3180 3181 3181 3182 3182 3182 3181 3181 3181 3180 3180 3180 3180 3181 3181 3180 3180 3180 3180 3179 3179 3179 3179 3179 3179 3179 3179 3179 3179 3179 3179 3178
3156 3157 3158 3159 3160 3161 3162 3163 3164 3164 3165 3166 3167 3167 3168 3168 3169 3169 3170 3170 3171 3171 3171 3172 3172 3172 3173 3173 3173 3174 3174 3174 3174 3174 3175 3175 3175 3175 3176 3176 3176 3177 3177 3177 3177 3178 3178 3178 3178 3178 3178 3178 3178 3178 3178 3178 3178 3179 3179 3180 3180 3180 3180 3180 3179 3179 3179 3179 3179 3179 3179 3178 3178 3179 3178 3178 3178 3178 3177 3177 3177 3177 3177 3178 3178 3177 3177 3177
3153 3154 3155 3156 3157 3158 3160 3161 3161 3162 3163 3164 3165 3165 3165 3166 3167 3167 3168 3169 3169 3169 3169 3170 3170 3170 3170 3171 3171 3172 3172 3172 3172 3173 3173 3173 3173 3174 3174 3174 3175 3175 3175 3176 3176 3176 3176 3176 3176 3177 3177 3176 3176 3177 3176 3177 3177 3177 3177 3178 3178 3178 3178 3178 3178 3178 3177 3177 3177 3177 3177 3177 3177 3177 3177 3177 3176 3176 3176 3175 3175 3176 3176 3176 3176 3176 3175 3175
3151 3152 3153 3154 3155 3156 3157 3158 3159 3160 3161 3162 3162 3163 3163 3164 3165 3165 3166 3167 3167 3167 3167 3168 3168 3168 3168 3168 3169 3170 3170 3170 3170 3171 3171 3171 3172 3172 3172 3173 3173 3173 3174 3174 3174 3174 3175 3175 3175 3175 3175 3175 3175 3175 3175 3175 3175 3175 3175 3175 3176 3176 3176 3176 3176 3176 3175 3175 3175 3175 3175 3174 3175 3175 3175 3175 3175 3174 3174 3174 3174 3174 3174 3174 3174 3173 3173 3173
3148 3149 3150 3151 3152 3153 3155 3156 3157 3158 3159 3160 3160 3161 3161 3162 3163 3163 3164 3164 3165 3165 3165 3165 3165 3166 3165 3166 3167 3168 3168 3168 3168 3169 3169 3170 3170 3170 3171 3171 3171 3171 3172 3172 3172 3173 3173 3173 3173 3173 3173 3173 3173 3173 3173 3173 3173 3173 3173 3173 3174 3174 3174 3174 3174 3173 3173 3174 3174 3174 3173 3172 3172 3173 3173 3173 3173 3172 3172 3172 3172 3172 3172 3172 3171 3171 3171 3170
3146 3146 3147 3149 3150 3151 3152 3153 3154 3155 3156 3157 3158 3159 3159 3160 3160 3161 3162 3162 3162 3163 3163 3163 3163 3163 3163 3164 3165 3165 3165 3166 3166 3167 3167 3167 3168 3168 3169 3169 3169 3170 3170 3170 3170 3170 3171 3171 3171 3171 3171 3171 3171 3171 3171 3171 3171 3171 3171 3171 3171 3172 3172 3172 3172 3171 3172 3172 3172 3172 3171 3170 3170 3171 3171 3171 3171 3171 3170 3170 3170 3170 3169 3169 3169 3169 3168 3168
3142 3143 3144 3146 3147 3148 3149 3151 3152 3153 3154 3154 3155 3156 3157 3157 3158 3159 3159 3160 3160 3160 3160 3160 3160 3160 3160 3161 3162 3162 3163 3163 3164 3164 3165 3165 3166 3166 3166 3167 3167 3167 3168 3168 3168 3168 3169 3169 3169 3169 3168 3169 3169 3169 3169 3169 3169 3169 3170 3170 3170 3170 3170 3170 3170 3170 3170 3170 3171 3171 3170 3168 3167 3168 3169 3169 3169 3169 3168 3168 3168 3168 3167 3167 3167 3166 3166 3166
3139 3140 3141 3142 3144 3145 3147 3148 3149 3150 3151 3152 3153 3153 3154 3155 3155 3156 3156 3157 3157 3157 3158 3157 3158 3158 3157 3158 3159 3160 3160 3161 3161 3162 3162 3163 3163 3163 3164 3164 3165 3165 3165 3165 3166 3166 3166 3166 3166 3166 3166 3166 3166 3166 3167 3167 3167 3167 3168 3168 3168 3168 3167 3168 3167 3168 3168 3169 3169 3169 3168 3167 3166 3166 3167 3167 3167 3167 3166 3166 3166 3166 3166 3165 3165 3164 3164 3163
3135 3137 3138 3139 3141 3142 3144 3145 3146 3147 3148 3149 3150 3151 3151 3152 3153 3153 3153 3154 3154 3155 3155 3154 3155 3155 3154 3155 3156 3157 3158 3158 3158 3159 3159 3160 3160 3161 3161 3161 3162 3162 3162 3163 3163 3163 3164 3164 3164 3164 3164 3164 3164 3165 3166 3165 3165 3165 3166 3166 3166 3166 3165 3165 3165 3165 3166 3166 3166 3166 3165 3166 3165 3164 3164 3164 3164 3164 3164 3164 3164 3164 3164 3163 3163 3162 3162 3161
3132 3133 3134 3136 3138 3139 3141 3142 3143 3144 3145 3146 3147 3148 3149 3149 3150 3150 3150 3151 3151 3152 3151 3151 3152 3152 3151 3152 3153 3154 3155 3155 3155 3156 3157 3157 3158 3158 3159 3159 3159 3159 3160 3160 3160 3161 3161 3161 3162 3162 3161 3161 3161 3163 3163 3163 3164 3164 3164 3164 3163 3164 3163 3163 3163 3163 3163 3163 3164 3163 3163 3163 3163 3162 3162 3161 3161 3161 3161 3161 3161 3161 3161 3161 3160 3160 3160 3159
3129 3130 3131 3133 3134 3136 3137 3139 3141 3142 3143 3144 3144 3145 3146 3146 3146 3147 3147 3148 3148 3149 3149 3149 3149 3149 3148 3150 3151 3151 3152 3152 3152 3153 3154 3155 3155 3155 3156 3156 3156 3157 3157 3157 3157 3158 3158 3158 3159 3158 3157 3158 3160 3161 3161 3161 3162 3161 3161 3161 3161 3161 3161 3161 3161 3161 3161 3160 3160 3160 3160 3160 3161 3160 3159 3158 3158 3158 3158 3158 3159 3159 3158 3158 3158 3157 3157 3156
3125 3126 3128 3129 3131 3133 3134 3136 3137 3139 3140 3141 3141 3142 3143 3143 3143 3143 3144 3144 3145 3146 3146 3145 3146 3145 3146 3147 3148 3148 3149 3149 3150 3151 3151 3152 3152 3152 3153 3153 3153 3154 3154 3154 3155 3155 3155 3155 3155 3154 3155 3157 3159 3159 3159 3159 3159 3158 3158 3158 3158 3158 3158 3159 3159 3158 3158 3157 3157 3157 3157 3157 3157 3157 3157 3156 3155 3155 3155 3155 3156 3156 3156 3155 3155 3155 3155 3155
3121 3123 3124 3126 3128 3129 3131 3133 3134 3135 3137 3137 3138 3139 3140 3141 3141 3140 3141 3141 3142 3142 3142 3142 3142 3142 3143 3144 3144 3145 3146 3146 3147 3148 3148 3149 3149 3149 3149 3150 3150 3151 3151 3152 3152 3152 3152 3151 3151 3153 3155 3156 3156 3156 3156 3156 3156 3156 3155 3156 3156 3155 3155 3156 3156 3155 3156 3154 3154 3154 3153 3153 3154 3154 3153 3153 3152 3152 3152 3152 3153 3153 3153 3153 3153 3153 3153 3153
3118 3119 3121 3122 3124 3126 3127 3129 3131 3132 3133 3134 3135 3136 3137 3138 3138 3137 3137 3136 3137 3138 3138 3138 3137 3138 3140 3140 3140 3142 3141 3142 3143 3144 3145 3146 3146 3146 3146 3147 3147 3148 3148 3149 3149 3149 3148 3147 3149 3153 3153 3153 3153 3153 3153 3153 3153 3153 3153 3153 3152 3152 3153 3153 3154 3153 3153 3152 3151 3151 3150 3150 3150 3149 3149 3149 3149 3149 3149 3150 3151 3151 3151 3151 3151 3151 3151 3151
3114 3115 3117 3118 3120 3123 3124 3125 3127 3128 3130 3131 3133 3134 3135 3135 3135 3135 3134 3132 3131 3133 3134 3133 3133 3134 3136 3136 3137 3138 3137 3139 3140 3141 3142 3142 3143 3143 3142 3143 3144 3144 3145 3145 3145 3145 3144 3145 3148 3150 3149 3149 3150 3150 3150 3150 3150 3150 3150 3150 3149 3150 3151 3151 3151 3151 3150 3149 3149 3148 3147 3146 3146 3145 3145 3145 3145 3146 3147 3148 3148 3148 3149 3149 3148 3148 3148 3148
3110 3112 3113 3114 3117 3118 3120 3122 3122 3124 3127 3128 3130 3131 3132 3132 3132 3132 3132 3128 3124 3126 3129 3129 3129 3129 3131 3132 3132 3133 3133 3135 3136 3137 3138 3138 3139 3139 3139 3140 3141 3140 3141 3142 3142 3141 3141 3143 3146 3146 3146 3147 3147 3147 3148 3147 3147 3147 3147 3147 3146 3148 3149 3149 3149 3149 3147 3147 3146 3146 3144 3141 3141 3141 3141 3141 3142 3143 3145 3145 3146 3146 3146 3146 3146 3146 3146 3146
3105 3107 3108 3110 3113 3114 3116 3116 3117 3122 3124 3125 3127 3128 3129 3129 3130 3130 3130 3126 3118 3118 3123 3124 3124 3125 3126 3128 3128 3129 3130 3130 3131 3133 3134 3135 3135 3135 3135 3136 3136 3136 3138 3139 3138 3137 3138 3141 3141 3142 3143 3144 3144 3144 3145 3145 3144 3144 3144 3144 3145 3146 3146 3146 3147 3146 3145 3144 3143 3145 3143 3138 3136 3137 3137 3138 3140 3141 3142 3142 3143 3143 3143 3143 3143 3143 3144 3144
3101 3103 3104 3106 3108 3110 3111 3110 3115 3120 3119 3122 3124 3125 3126 3126 3128 3128 3128 3125 3113 3110 3116 3118 3119 3119 3120 3122 3123 3126 3126 3123 3127 3130 3130 3131 3131 3131 3131 3131 3132 3133 3135 3136 3135 3133 3135 3137 3137 3139 3140 3140 3140 3140 3141 3142 3141 3141 3141 3142 3143 3143 3144 3144 3144 3145 3143 3142 3141 3143 3142 3137 3135 3136 3137 3137 3138 3139 3139 3139 3140 3140 3140 3140 3141 3141 3142 3142
3096 3098 3100 3102 3104 3105 3105 3108 3114 3115 3115 3120 3121 3122 3123 3124 3126 3126 3127 3125 3108 3101 3108 3111 3112 3113 3114 3117 3119 3122 3120 3117 3122 3125 3124 3126 3126 3127 3127 3126 3128 3130 3131 3133 3131 3128 3130 3133 3134 3135 3136 3136 3136 3137 3138 3139 3139 3138 3138 3139 3140 3141 3142 3142 3142 3142 3141 3140 3140 3140 3140 3137 3135 3135 3136 3136 3136 3136 3136 3136 3136 3137 3137 3138 3138 3139 3139 3140
3092 3094 3095 3097 3099 3100 3101 3105 3109 3111 3114 3117 3117 3119 3120 3121 3124 3124 3128 3125 3104 3096 3102 3104 3106 3108 3110 3113 3114 3116 3114 3114 3118 3119 3120 3122 3122 3122 3123 3123 3125 3126 3128 3129 3126 3126 3128 3130 3131 3132 3132 3133 3133 3134 3135 3136 3136 3136 3136 3137 3138 3139 3140 3140 3140 3140 3139 3139 3137 3137 3138 3136 3132 3132 3134 3134 3133 3133 3133 3133 3134 3134 3135 3136 3136 3137 3137 3138
3087 3089 3090 3092 3094 3095 3097 3099 3103 3108 3111 3112 3114 3116 3116 3119 3121 3122 3127 3120 3098 3093 3098 3099 3102 3104 3105 3108 3110 3111 3111 3112 3114 3114 3116 3118 3117 3118 3119 3120 3122 3123 3124 3124 3123 3124 3126 3126 3128 3129 3129 3129 3130 3131 3132 3133 3133 3133 3134 3135 3136 3137 3137 3138 3138 3138 3138 3136 3133 3133 3135 3134 3129 3127 3130 3131 3130 3130 3130 3131 3132 3132 3133 3133 3134 3135 3136 3137
3082 3084 3086 3087 3088 3089 3092 3095 3100 3104 3106 3108 3111 3112 3114 3116 3116 3121 3123 3108 3092 3091 3094 3095 3099 3100 3102 3105 3106 3107 3108 3108 3110 3111 3112 3113 3113 3115 3115 3117 3119 3119 3120 3120 3120 3122 3122 3123 3124 3125 3125 3126 3128 3128 3129 3130 3130 3131 3132 3133 3134 3135 3135 3136 3136 3137 3137 3132 3128 3130 3132 3132 3128 3124 3125 3127 3127 3127 3128 3129 3130 3130 3131 3131 3132 3133 3134 3135
3077 3079 3081 3081 3082 3086 3088 3091 3097 3100 3101 3103 3106 3108 3110 3111 3114 3117 3108 3093 3089 3090 3090 3092 3095 3096 3100 3101 3102 3104 3104 3105 3106 3106 3107 3108 3110 3110 3112 3114 3115 3116 3116 3115 3116 3118 3118 3119 3120 3121 3122 3123 3124 3125 3126 3127 3128 3129 3130 3131 3133 3133 3134 3134 3134 3135 3134 3128 3125 3127 3127 3128 3126 3122 3122 3124 3124 3126 3126 3127 3128 3129 3129 3130 3131 3132 3132 3132
3072 3074 3076 3076 3078 3081 3083 3087 3094 3096 3097 3099 3102 3103 3105 3108 3109 3101 3090 3086 3089 3086 3084 3089 3091 3093 3097 3097 3099 3100 3100 3101 3101 3102 3103 3105 3106 3106 3108 3109 3110 3112 3112 3111 3113 3114 3114 3115 3116 3117 3118 3119 3121 3122 3123 3124 3125 3126 3127 3129 3131 3133 3133 3133 3132 3132 3129 3125 3124 3125 3125 3124 3120 3118 3121 3122 3123 3124 3125 3126 3127 3127 3128 3129 3130 3130 3130 3130
3067 3069 3070 3071 3073 3075 3078 3084 3090 3091 3091 3095 3098 3098 3102 3103 3093 3081 3080 3085 3085 3081 3082 3086 3087 3090 3093 3093 3094 3096 3096 3097 3098 3099 3100 3101 3102 3103 3104 3105 3106 3108 3107 3107 3110 3111 3111 3111 3112 3113 3114 3115 3116 3117 3119 3120 3121 3123 3124 3126 3128 3131 3133 3131 3129 3128 3125 3122 3121 3123 3123 3119 3114 3115 3118 3119 3121 3122 3122 3123 3124 3125 3126 3126 3127 3127 3127 3128
3062 3064 3065 3066 3067 3071 3075 3079 3083 3085 3085 3089 3091 3092 3096 3091 3074 3069 3076 3079 3079 3080 3081 3083 3084 3087 3089 3089 3091 3092 3093 3094 3094 3096 3097 3097 3098 3098 3099 3100 3101 3103 3105 3106 3108 3107 3108 3107 3107 3108 3109 3110 3112 3113 3116 3117 3119 3120 3121 3124 3124 3125 3127 3124 3123 3122 3120 3119 3119 3121 3120 3113 3110 3111 3112 3115 3118 3119 3119 3121 3122 3123 3123 3123 3124 3124 3125 3125
3057 3058 3060 3060 3061 3064 3068 3072 3076 3079 3080 3081 3084 3086 3084 3073 3062 3065 3071 3073 3077 3079 3079 3081 3083 3084 3084 3086 3087 3089 3091 3091 3091 3093 3093 3092 3092 3092 3094 3095 3097 3099 3101 3103 3104 3104 3104 3103 3103 3105 3106 3108 3109 3110 3113 3115 3117 3118 3119 3121 3120 3121 3121 3120 3120 3118 3118 3118 3116 3115 3112 3107 3107 3109 3110 3113 3115 3116 3117 3118 3119 3120 3120 3120 3121 3121 3122 3123
3050 3051 3052 3051 3052 3057 3062 3066 3070 3073 3073 3074 3076 3074 3066 3057 3056 3061 3065 3069 3073 3074 3076 3079 3079 3080 3081 3082 3083 3086 3088 3088 3089 3089 3089 3089 3089 3088 3090 3092 3094 3095 3096 3098 3099 3099 3100 3100 3101 3102 3103 3105 3106 3107 3109 3111 3112 3114 3115 3115 3116 3118 3119 3119 3118 3117 3119 3117 3109 3106 3105 3103 3106 3107 3107 3111 3112 3113 3115 3115 3116 3117 3116 3117 3118 3119 3119 3119
3042 3043 3044 3043 3047 3052 3056 3060 3064 3067 3067 3066 3063 3059 3053 3051 3055 3059 3061 3065 3068 3070 3074 3075 3073 3074 3076 3078 3079 3081 3084 3085 3085 3085 3085 3086 3084 3083 3085 3088 3090 3091 3092 3095 3096 3096 3097 3097 3098 3100 3100 3102 3103 3104 3105 3106 3108 3109 3110 3111 3114 3117 3117 3118 3118 3117 3119 3115 3104 3099 3100 3100 3102 3102 3103 3106 3108 3109 3111 3112 3113 3113 3114 3115 3115 3116 3116 3116
3036 3037 3036 3036 3042 3048 3052 3056 3058 3059 3060 3057 3053 3050 3047 3047 3050 3054 3057 3060 3064 3067 3069 3068 3068 3070 3071 3073 3075 3078 3081 3080 3080 3081 3082 3082 3079 3077 3081 3085 3085 3087 3090 3093 3093 3093 3095 3095 3096 3097 3098 3099 3101 3101 3102 3103 3105 3105 3106 3108 3111 3113 3113 3115 3116 3113 3113 3112 3102 3096 3096 3095 3095 3097 3098 3101 3104 3105 3107 3109 3110 3110 3112 3112 3113 3113 3112 3112
3030 3031 3026 3028 3036 3043 3047 3050 3049 3051 3051 3048 3046 3042 3040 3041 3044 3049 3053 3055 3059 3062 3061 3061 3064 3066 3066 3067 3069 3073 3075 3074 3075 3077 3077 3077 3075 3074 3077 3081 3082 3083 3086 3088 3088 3089 3091 3093 3093 3094 3095 3097 3096 3096 3096 3098 3100 3102 3103 3106 3107 3108 3109 3109 3109 3107 3106 3106 3102 3095 3091 3089 3089 3092 3095 3097 3100 3102 3103 3105 3107 3108 3109 3109 3110 3110 3109 3110
3024 3024 3018 3021 3031 3036 3040 3042 3041 3043 3041 3037 3037 3034 3032 3036 3040 3044 3048 3051 3054 3055 3055 3056 3060 3061 3060 3062 3065 3068 3070 3070 3071 3072 3072 3072 3071 3070 3074 3077 3078 3080 3082 3084 3084 3085 3087 3089 3089 3090 3092 3092 3091 3090 3091 3092 3094 3096 3098 3100 3102 3105 3106 3106 3104 3103 3102 3103 3101 3096 3089 3083 3085 3089 3091 3094 3097 3099 3100 3102 3104 3105 3105 3106 3106 3106 3107 3107
3017 3016 3011 3014 3023 3028 3031 3032 3031 3032 3033 3031 3030 3029 3029 3033 3035 3038 3043 3046 3048 3049 3050 3052 3055 3055 3056 3057 3059 3062 3065 3066 3066 3067 3067 3066 3066 3067 3069 3072 3075 3076 3077 3078 3078 3079 3081 3083 3084 3086 3086 3085 3086 3087 3089 3090 3091 3092 3093 3094 3096 3099 3101 3103 3101 3098 3099 3099 3098 3097 3088 3081 3084 3087 3089 3092 3095 3096 3098 3099 3100 3101 3102 3102 3103 3103 3104 3104
3009 3008 3005 3008 3014 3020 3023 3021 3020 3023 3024 3022 3022 3024 3026 3028 3030 3034 3037 3040 3043 3044 3046 3048 3049 3051 3052 3053 3055 3058 3060 3060 3060 3061 3061 3060 3062 3064 3066 3068 3071 3071 3072 3072 3072 3074 3077 3078 3080 3081 3081 3083 3085 3085 3086 3087 3088 3090 3090 3090 3093 3094 3095 3097 3095 3093 3096 3095 3094 3096 3089 3080 3082 3086 3087 3090 3091 3093 3094 3095 3096 3097 3098 3099 3099 3100 3101 3101
3001 3002 3002 3003 3007 3012 3015 3013 3014 3016 3016 3016 3018 3021 3023 3025 3026 3029 3032 3035 3037 3039 3041 3042 3044 3046 3047 3048 3051 3053 3055 3055 3054 3054 3055 3056 3058 3060 3062 3065 3066 3067 3067 3067 3068 3071 3073 3074 3076 3078 3080 3081 3082 3082 3083 3084 3085 3085 3084 3084 3087 3088 3090 3092 3091 3090 3092 3089 3090 3094 3088 3078 3079 3083 3085 3086 3088 3089 3091 3091 3093 3094 3094 3095 3096 3097 3098 3097
2997 2997 2998 2998 3001 3004 3005 3005 3007 3008 3009 3013 3016 3017 3020 3021 3022 3023 3026 3028 3031 3033 3035 3037 3039 3041 3043 3044 3046 3048 3049 3050 3049 3049 3051 3051 3053 3056 3058 3060 3061 3062 3063 3063 3064 3066 3067 3068 3071 3075 3078 3079 3079 3079 3079 3078 3079 3078 3077 3079 3082 3084 3087 3088 3087 3089 3087 3082 3085 3089 3081 3076 3079 3080 3081 3083 3085 3086 3087 3088 3089 3090 3091 3092 3093 3093 3094 3094
2993 2993 2993 2994 2995 2996 2995 2997 3001 3002 3004 3009 3010 3011 3015 3015 3015 3017 3021 3023 3026 3029 3031 3032 3034 3037 3039 3041 3042 3042 3044 3044 3045 3046 3047 3047 3049 3052 3054 3055 3056 3058 3059 3060 3062 3063 3062 3061 3062 3064 3066 3067 3068 3067 3066 3067 3070 3071 3072 3075 3078 3080 3081 3081 3083 3085 3080 3077 3080 3080 3074 3075 3078 3077 3077 3081 3082 3082 3084 3085 3086 3087 3087 3088 3089 3089 3089 3090
2987 2987 2988 2990 2990 2990 2990 2993 2998 2999 3000 3004 3004 3005 3008 3009 3010 3013 3017 3019 3021 3024 3026 3027 3030 3033 3034 3035 3036 3036 3037 3040 3041 3041 3042 3043 3045 3047 3049 3050 3051 3053 3055 3056 3058 3059 3058 3056 3054 3053 3053 3054 3055 3056 3058 3062 3065 3067 3068 3071 3073 3074 3075 3077 3078 3075 3073 3075 3075 3071 3070 3074 3075 3073 3075 3078 3079 3080 3081 3081 3082 3083 3083 3084 3084 3084 3084 3085
2980 2979 2981 2984 2985 2986 2986 2988 2991 2993 2995 2998 2998 2999 3002 3004 3006 3009 3012 3014 3015 3018 3021 3022 3024 3026 3026 3027 3029 3030 3032 3035 3036 3036 3037 3038 3040 3042 3044 3045 3046 3047 3050 3052 3053 3053 3052 3050 3048 3049 3050 3051 3053 3056 3058 3060 3062 3064 3066 3067 3068 3069 3070 3071 3070 3067 3070 3074 3069 3064 3068 3070 3069 3070 3074 3075 3076 3077 3077 3078 3078 3078 3079 3078 3078 3078 3079 3080
2974 2974 2976 2978 2979 2979 2980 2981 2984 2987 2991 2993 2994 2995 2998 3000 3002 3004 3006 3008 3010 3012 3015 3015 3016 3017 3019 3021 3024 3025 3027 3029 3029 3030 3031 3034 3036 3037 3038 3040 3041 3042 3044 3047 3048 3048 3047 3046 3046 3048 3048 3049 3052 3054 3055 3057 3059 3061 3062 3063 3063 3063 3064 3064 3063 3063 3066 3066 3061 3062 3066 3065 3064 3067 3070 3071 3072 3073 3073 3074 3074 3074 3074 3073 3073 3073 3073 3074
2971 2971 2972 2974 2974 2975 2976 2978 2981 2984 2986 2989 2990 2991 2993 2995 2997 2999 3001 3003 3004 3006 3008 3008 3009 3012 3014 3016 3018 3019 3020 3021 3021 3022 3025 3028 3030 3032 3033 3035 3036 3038 3040 3042 3043 3045 3045 3044 3045 3046 3046 3047 3049 3050 3051 3054 3056 3056 3057 3057 3057 3058 3059 3059 3059 3060 3062 3060 3059 3062 3063 3060 3060 3063 3065 3067 3068 3069 3070 3070 3069 3069 3069 3068 3068 3067 3068 3069
2966 2967 2968 2969 2970 2972 2974 2975 2977 2980 2982 2984 2985 2986 2988 2989 2992 2995 2997 2998 2999 3001 3002 3003 3005 3008 3010 3012 3013 3013 3014 3016 3016 3018 3021 3024 3025 3027 3029 3030 3032 3033 3035 3037 3038 3040 3040 3039 3040 3042 3043 3044 3044 3045 3049 3050 3051 3052 3052 3050 3051 3053 3055 3054 3054 3056 3058 3057 3058 3060 3058 3055 3057 3060 3062 3064 3065 3065 3066 3065 3065 3064 3064 3063 3062 3062 3063 3064
2962 2963 2964 2966 2966 2968 2970 2971 2973 2975 2976 2978 2979 2980 2983 2984 2987 2991 2992 2993 2994 2996 2998 2999 3002 3005 3006 3007 3008 3009 3011 3013 3013 3014 3017 3019 3021 3023 3025 3026 3027 3028 3030 3032 3033 3033 3035 3035 3035 3037 3039 3038 3039 3042 3045 3046 3049 3049 3042 3039 3044 3048 3048 3047 3049 3052 3054 3054 3055 3055 3052 3050 3054 3058 3059 3060 3061 3061 3061 3060 3060 3059 3058 3058 3057 3057 3058 3059
2958 2959 2960 2963 2963 2964 2966 2967 2969 2970 2971 2972 2975 2977 2979 2981 2983 2987 2988 2988 2990 2992 2993 2995 2998 3000 3001 3002 3004 3005 3006 3007 3008 3010 3012 3014 3016 3019 3020 3021 3023 3024 3025 3027 3028 3029 3031 3031 3032 3034 3034 3034 3036 3038 3041 3045 3047 3039 3028 3029 3038 3041 3040 3041 3043 3045 3047 3049 3049 3047 3046 3048 3053 3054 3054 3055 3056 3056 3056 3056 3055 3054 3053 3053 3053 3053 3053 3054